{"data":{"norad_id":58214,"epoch":"2026-05-25T04:44:40.509312Z","epoch_age_seconds":58117,"freshness":"FRESH","line1":"1 58214U 23170J   26145.19769108  .00001288  00000+0  56321-4 0  9991","line2":"2 58214  43.0032 121.8692 0001658 273.4550  86.6112 15.27581694142008","mean_motion":15.27581694,"eccentricity":0.0001658,"inclination_deg":43.0032,"raan_deg":121.8692,"arg_perigee_deg":273.455,"mean_anomaly_deg":86.6112,"bstar":5.6321e-5,"rev_number":14200,"period_min":94.266644177264,"perigee_km":481.90643978521,"apogee_km":484.18160741264,"semimajor_km":6861.1810235989,"source":"CELESTRAK","updated_at":"2026-05-25T13:38:18.575701Z"}}